Weather History for KFKS - January, 2014

Change the Weather History Date:

Sunday, January 26, 2014

  Actual Average (KTVC) Record (KTVC)
Temperature  
Mean Temperature 12 °F 21 °F  
Max Temperature 18 °F 28 °F 59 °F (1944)
Min Temperature 7 °F 14 °F -14 °F (1927)
Degree Days  
Heating Degree Days 52 44  
Month to date heating degree days 1129  
Since 1 July heating degree days 3937  
Moisture  
Dew Point 6 °F    
Average Humidity 78    
Maximum Humidity 88    
Minimum Humidity 65    
Precipitation  
Precipitation 0.00 in 0.08 in 0.67 in (1971)
Month to date precipitation 2.43  
Year to date precipitation 2.43  
Sea Level Pressure  
Sea Level Pressure 29.45 in    
Wind  
Wind Speed 10 mph (SW)    
Max Wind Speed 23 mph    
Max Gust Speed 31 mph    
Visibility 5 miles    
Events Snow    
T = Trace of Precipitation, MM = Missing Value Source: NWS Daily Summary

Daily Weather History Graph

Daily Weather History Graph

Search for Another Location

Airport or City:

Trip Planner

Search our weather history database for the weather conditions in past years. The results will help you decide how hot, cold, wet, or windy it might be!

Date:

Astronomy

Jan. 26, 2014 Rise Set
Actual Time 8:09 AM EST 5:45 PM EST
Civil Twilight 7:38 AM EST 6:16 PM EST
Nautical Twilight 7:03 AM EST 6:52 PM EST
Astronomical Twilight 6:28 AM EST 7:26 PM EST
Moon 3:47 AM EST (1/26) 1:32 PM EST (1/26)
Length of Visible Light 10h 38m
Length of Day
9h 35m
Waning Crescent, 24% of the Moon is Illuminated
Jan 26
Waning Crescent
Jan 30
New
Feb 6
First Quarter
Feb 14
Full
Feb 22
Last Quarter

Hourly Weather History & Observations

Time (EST) Temp. Windchill Dew Point Humidity Pressure Visibility Wind Dir Wind Speed Gust Speed Precip Events Conditions
12:14 AM 7.3 °F -7.9 °F -2.2 °F 65% 29.70 in 10.0 mi West 11.5 mph - N/A   Overcast
12:34 AM 7.3 °F -7.9 °F -0.8 °F 69% 29.69 in 7.0 mi WNW 11.5 mph - N/A   Overcast
12:54 AM 7.3 °F -6.2 °F -1.8 °F 66% 29.68 in 10.0 mi NW 9.2 mph - N/A   Overcast
1:15 AM 7.7 °F -5.8 °F -1.1 °F 67% 29.66 in 10.0 mi NW 9.2 mph - N/A   Overcast
1:35 AM 8.1 °F -4.3 °F -0.8 °F 67% 29.65 in 10.0 mi WNW 8.1 mph - N/A   Overcast
1:55 AM 8.4 °F -3.9 °F -0.6 °F 67% 29.64 in 10.0 mi WNW 8.1 mph - N/A   Overcast
2:15 AM 8.6 °F -5.5 °F -0.0 °F 68% 29.63 in 10.0 mi West 10.4 mph - N/A   Overcast
2:35 AM 8.6 °F 0.1 °F 0.1 °F 68% 29.61 in 10.0 mi NW 4.6 mph - N/A   Overcast
2:55 AM 8.6 °F -3.7 °F 0.5 °F 70% 29.60 in 10.0 mi WNW 8.1 mph - N/A   Overcast
3:15 AM 9.0 °F - 0.7 °F 69% 29.60 in 10.0 mi Calm Calm - N/A   Overcast
3:35 AM 9.1 °F 0.8 °F 1.2 °F 70% 29.61 in 10.0 mi WNW 4.6 mph - N/A   Overcast
3:55 AM 9.5 °F - 1.4 °F 70% 29.61 in 10.0 mi Calm Calm - N/A   Overcast
4:16 AM 9.9 °F 1.6 °F 2.1 °F 71% 29.60 in 10.0 mi WSW 4.6 mph - N/A   Overcast
4:36 AM 10.2 °F 3.8 °F 2.7 °F 72% 29.60 in 10.0 mi SW 3.5 mph - N/A   Overcast
4:56 AM 10.9 °F - 3.2 °F 71% 29.60 in 10.0 mi Calm Calm - N/A   Overcast
5:16 AM 11.1 °F 4.9 °F 3.9 °F 73% 29.59 in 10.0 mi WSW 3.5 mph - N/A   Overcast
5:36 AM 7.9 °F -3.5 °F 2.3 °F 78% 29.59 in 7.0 mi ESE 6.9 mph - N/A Snow Light Snow
5:51 AM 7.7 °F -3.7 °F 3.2 °F 82% 29.57 in 3.0 mi ESE 6.9 mph - N/A Snow Light Snow
6:11 AM 7.7 °F -3.7 °F 4.1 °F 85% 29.56 in 1.8 mi SE 6.9 mph - N/A Snow Light Snow
6:31 AM 7.7 °F -3.7 °F 4.3 °F 86% 29.55 in 1.0 mi SE 6.9 mph - N/A Snow Snow
6:52 AM 8.1 °F -2.0 °F 4.6 °F 86% 29.55 in 1.5 mi SE 5.8 mph - N/A Snow Light Snow
7:12 AM 8.1 °F -2.0 °F 4.5 °F 85% 29.53 in 1.5 mi SE 5.8 mph - N/A Snow Light Snow
7:32 AM 7.9 °F -2.2 °F 4.1 °F 85% 29.53 in 2.0 mi SE 5.8 mph - N/A Snow Light Snow
7:52 AM 7.7 °F -3.7 °F 3.9 °F 85% 29.52 in 2.5 mi SE 6.9 mph - N/A Snow Light Snow
8:12 AM 7.7 °F -4.8 °F 4.1 °F 85% 29.51 in 1.8 mi SE 8.1 mph - N/A Snow Light Snow
8:32 AM 8.1 °F -2.0 °F 4.1 °F 84% 29.51 in 1.2 mi SE 5.8 mph - N/A Snow Light Snow
8:52 AM 8.2 °F -4.1 °F 4.1 °F 83% 29.50 in 1.8 mi SE 8.1 mph - N/A Snow Light Snow
9:12 AM 8.2 °F -5.1 °F 4.5 °F 85% 29.47 in 1.8 mi SE 9.2 mph - N/A Snow Light Snow
9:32 AM 8.6 °F -4.7 °F 4.6 °F 84% 29.45 in 2.5 mi SE 9.2 mph - N/A Snow Light Snow
9:52 AM 8.8 °F -5.3 °F 4.5 °F 83% 29.43 in 4.0 mi SE 10.4 mph - N/A Snow Light Snow
10:12 AM 9.1 °F -6.4 °F 4.5 °F 81% 29.42 in 5.0 mi SSE 12.7 mph - N/A Snow Light Snow
10:33 AM 9.5 °F -2.6 °F 4.5 °F 80% 29.41 in 5.0 mi SE 8.1 mph 11.5 mph N/A   Haze
10:53 AM 10.2 °F -0.6 °F 4.8 °F 79% 29.40 in 7.0 mi SE 6.9 mph - N/A Snow Light Snow
11:13 AM 10.9 °F 1.4 °F 5.4 °F 78% 29.40 in 7.0 mi SE 5.8 mph - N/A Snow Light Snow
11:33 AM 11.3 °F 1.9 °F 5.7 °F 78% 29.40 in 7.0 mi SE 5.8 mph - N/A Snow Light Snow
11:53 AM 11.3 °F -0.4 °F 5.9 °F 79% 29.38 in 4.0 mi SSE 8.1 mph - N/A Snow Light Snow
12:13 PM 11.7 °F 2.3 °F 6.8 °F 81% 29.38 in 2.0 mi SE 5.8 mph - N/A Snow Light Snow
12:33 PM 12.2 °F 1.7 °F 7.5 °F 82% 29.35 in 1.5 mi SE 6.9 mph - N/A Snow Light Snow
12:53 PM 12.4 °F 0.9 °F 8.2 °F 83% 29.32 in 1.2 mi SE 8.1 mph - N/A Snow Light Snow
1:14 PM 13.6 °F -1.3 °F 8.6 °F 80% 29.25 in 2.5 mi SE 13.8 mph 18.4 mph N/A   Haze
1:34 PM 14.7 °F 2.9 °F 8.6 °F 77% 29.29 in 4.0 mi SSE 9.2 mph 18.4 mph N/A   Haze
1:54 PM 14.9 °F 2.3 °F 9.3 °F 79% 29.27 in 5.0 mi SSE 10.4 mph - N/A Snow Light Snow
2:14 PM 15.8 °F 3.4 °F 9.5 °F 76% 29.25 in 7.0 mi South 10.4 mph - N/A Snow Light Snow
2:34 PM 15.1 °F 1.8 °F 9.9 °F 80% 29.25 in 1.5 mi SSE 11.5 mph 19.6 mph N/A Snow Light Snow
2:54 PM 15.3 °F 1.4 °F 10.9 °F 83% 29.26 in 1.8 mi SSE 12.7 mph - N/A Snow Light Snow
3:14 PM 15.4 °F 2.3 °F 11.3 °F 84% 29.26 in 1.2 mi South 11.5 mph 17.3 mph N/A Snow Light Snow
3:34 PM 15.8 °F 7.2 °F 12.2 °F 86% 29.27 in 0.8 mi South 5.8 mph - N/A Snow Light Snow
3:54 PM 16.5 °F 3.6 °F 13.6 °F 88% 29.24 in 0.8 mi SSW 11.5 mph 17.3 mph N/A Snow Light Snow
4:15 PM 18.5 °F 6.1 °F 13.1 °F 79% 29.26 in 4.0 mi West 11.5 mph 17.3 mph N/A Snow Light Snow
4:35 PM 18.1 °F 3.4 °F 13.1 °F 81% 29.28 in 3.0 mi West 16.1 mph 20.7 mph N/A Snow Light Snow
4:55 PM 17.1 °F 3.0 °F 12.2 °F 81% 29.28 in 2.5 mi West 13.8 mph 27.6 mph N/A Snow Light Snow
5:15 PM 16.5 °F 0.3 °F 11.7 °F 81% 29.29 in 2.5 mi WNW 18.4 mph 26.5 mph N/A Snow Light Snow
5:35 PM 15.8 °F -0.2 °F 10.9 °F 81% 29.31 in 3.0 mi West 17.3 mph 24.2 mph N/A Snow Light Snow
5:55 PM 15.8 °F 0.3 °F 10.6 °F 80% 29.32 in 4.0 mi WNW 16.1 mph 25.3 mph N/A Snow Light Snow
6:15 PM 15.6 °F 0.1 °F 10.2 °F 79% 29.33 in 4.0 mi WNW 16.1 mph 23.0 mph N/A Snow Light Snow
6:35 PM 15.3 °F -0.9 °F 9.1 °F 77% 29.34 in 4.0 mi WNW 17.3 mph 25.3 mph N/A Snow Light Snow
6:55 PM 15.1 °F -1.6 °F 8.6 °F 76% 29.35 in 5.0 mi WNW 18.4 mph 25.3 mph N/A Snow Light Snow
7:15 PM 14.9 °F -3.5 °F 7.7 °F 73% 29.36 in 4.0 mi WNW 23.0 mph 28.8 mph N/A Snow Light Snow
7:36 PM 14.5 °F -2.3 °F 7.5 °F 74% 29.37 in 4.0 mi WNW 18.4 mph 27.6 mph N/A Snow Light Snow
7:56 PM 14.0 °F -2.5 °F 7.5 °F 75% 29.38 in 2.5 mi NW 17.3 mph 29.9 mph N/A Snow Light Snow
8:16 PM 13.8 °F -3.2 °F 7.2 °F 75% 29.39 in 4.0 mi WNW 18.4 mph 25.3 mph N/A Snow Light Snow
8:36 PM 13.1 °F -5.9 °F 7.2 °F 77% 29.40 in 1.8 mi NW 23.0 mph 29.9 mph N/A Snow Light Snow
8:51 PM 13.1 °F -3.1 °F 5.9 °F 73% 29.40 in 4.0 mi WNW 16.1 mph 25.3 mph N/A Snow Light Snow
9:11 PM 12.7 °F -4.6 °F 5.4 °F 72% 29.41 in 4.0 mi NW 18.4 mph 24.2 mph N/A   Haze
9:31 PM 12.2 °F -5.3 °F 5.5 °F 75% 29.41 in 3.0 mi NW 18.4 mph 26.5 mph N/A Snow Light Snow
9:52 PM 11.3 °F -4.9 °F 6.4 °F 81% 29.42 in 1.0 mi NW 15.0 mph 24.2 mph N/A Snow Light Snow
10:12 PM 11.7 °F -5.5 °F 3.6 °F 70% 29.43 in 5.0 mi NW 17.3 mph - N/A   Haze
10:32 PM 11.5 °F -5.8 °F 4.6 °F 74% 29.44 in 3.0 mi WNW 17.3 mph 27.6 mph N/A Snow Light Snow
10:52 PM 11.8 °F -4.2 °F 4.5 °F 72% 29.45 in 3.0 mi NW 15.0 mph 23.0 mph N/A   Haze
11:12 PM 11.8 °F -5.3 °F 6.4 °F 79% 29.46 in 1.5 mi NW 17.3 mph 25.3 mph N/A Snow Light Snow
11:32 PM 11.5 °F -5.8 °F 7.3 °F 83% 29.48 in 0.8 mi NW 17.3 mph 28.8 mph N/A Snow Snow
11:52 PM 10.9 °F -7.5 °F 7.0 °F 84% 29.49 in 0.5 mi NW 19.6 mph 31.1 mph N/A Snow Snow